Preview of NWS' New Version of Forecast
This preview is not operational and should not be used for support decisions.

Regional Weather Roundup (RWR)

Issued by National Weather Service (NWS)

                            
000
ASUS43 KDTX 231310
RWRMI 
MICHIGAN HOURLY REGIONAL WEATHER ROUNDUP
NATIONAL WEATHER SERVICE DETROIT/PONTIAC MI
800 AM EST SAT FEB 23 2019

NOTE: "FAIR" INDICATES FEW OR NO CLOUDS BELOW 12,000 FEET WITH NO
SIGNIFICANT WEATHER AND/OR OBSTRUCTION TO VISIBILITY.

MIZ047>049-052>055-059>063-066>070-074>076-081>083-231400-
SOUTHEAST LOWER MICHIGAN
  
CITY           SKY/WX    TMP DP  RH WIND       PRES   REMARKS
ADRIAN         CLOUDY    30  25  81 E10       30.20F WCI  21          
ALMA           CLOUDY    29  23  79 E7        30.25S WCI  22          
ANN ARBOR      CLOUDY    30  23  75 NE7       30.21F WCI  23          
BAD AXE        FAIR      28  24  83 E3        30.27F                  
CARO           CLOUDY    28  24  83 E6        30.26S WCI  22          
DETROIT CITY   MOCLDY    28  23  81 NE6       30.25F WCI  22          
DETROIT        CLOUDY    31  22  69 NE7       30.24F HAZE    WCI  24  
FLINT          CLOUDY    28  23  81 E6        30.24S WCI  22          
GROSSE ILE     FAIR      29  26  86 NE7       30.23S WCI  22          
HILLSDALE      CLOUDY    31  24  74 E12       30.16F WCI  22          
HOWELL         CLOUDY    30  22  72 E6        30.21F WCI  24          

CITY           SKY/WX    TMP DP  RH WIND       PRES   REMARKS
JACKSON        CLOUDY    31  23  72 E8        30.18F WCI  23          
LAMBERTVILLE   CLOUDY    31  27  85 E7        30.20F WCI  24          
LANSING        CLOUDY    29  22  75 E7        30.22S WCI  22          
LAPEER         CLOUDY    29  22  75 E6        30.25S WCI  23          
MASON          CLOUDY    31  24  75 E5        30.21S WCI  26          
MONROE         CLOUDY    31  28  90 NE5       30.21F WCI  26          
MT. CLEMENS    CLOUDY    28  27  94 NE7       30.25S FOG     WCI  21  
PONTIAC        CLOUDY    28  22  78 E13       30.21F WCI  17          
PORT HOPE        N/A     30  25  81 E13       30.28F WCI  20          
PORT HURON     MOCLDY    28  23  80 E9        30.28S WCI  20          
TRI CITIES     CLOUDY    29  24  82 E9        30.27S WCI  20          
MIDLAND        CLOUDY    29  25  83 CALM      30.27R                  
TROY           CLOUDY    29  22  75 NE7       30.27S WCI  22          
SAGINAW HB     CLOUDY    30  23  74 E7        30.26S WCI  23          
$$
MIZ043>046-050>051-056>058-064>065-071>073-077>080-231400-
SOUTHWEST LOWER MICHIGAN
  
CITY           SKY/WX    TMP DP  RH WIND       PRES   REMARKS
BATTLE CREEK   CLOUDY    31  22  69 E10       30.16F WCI  22          
BENTON HARBOR  CLOUDY    35  24  64 E14G23    30.10F WCI  26          
BIG RAPIDS     CLOUDY    29  23  78 E9        30.19F WCI  21          
COLDWATER      CLOUDY    34  25  71 E10       30.16S WCI  26          
FREMONT        CLOUDY    32  21  64 E13       30.14F WCI  22          
HOLLAND        CLOUDY    31  21  66 E14       30.13F WCI  21          
GRAND RAPIDS   CLOUDY    31  21  66 E15       30.17F WCI  20          
IONIA          CLOUDY    28  21  75 E9        30.19F WCI  19          
KALAMAZOO      CLOUDY    33  23  66 E9        30.15F WCI  25          
LUDINGTON      CLOUDY    32  22  67 E14       30.16F WCI  22          
MARSHALL       CLOUDY    32  25  76 E6        30.17S WCI  26          
MOUNT PLEASANT CLOUDY    29  22  75 E6        30.24F WCI  23          
MUSKEGON       CLOUDY    32  20  61 E14       30.14F WCI  22          
SOUTH HAVEN    CLOUDY    34  24  66 SE13      30.10F WCI  25          
$$
MIZ016>042-231400-
NORTHERN LOWER MICHIGAN
  
CITY           SKY/WX    TMP DP  RH WIND       PRES   REMARKS
ALPENA         CLOUDY    20  18  92 CALM      30.31F                  
BEAVER ISLAND  CLOUDY    28  23  82 E9        30.26S WCI  19          
BELLAIRE       CLOUDY    27  22  82 CALM      30.26F                  
CADILLAC       CLOUDY    27  21  78 E12       30.16F WCI  17          
CHARLEVOIX     CLOUDY    28  22  78 E7        30.28F WCI  21          
FRANKFORT      CLOUDY    31  21  67 E7        30.19F WCI  24          
GAYLORD        MOCLDY    25  20  81 SE7       30.23F WCI  17          
GRAYLING       CLOUDY    25  22  89 E7        30.24  WCI  17          
HARBOR SPRINGS CLOUDY    27  20  76 NE5       30.27F WCI  22          
HOUGHTON LAKE  CLOUDY    26  21  81 E7        30.24F WCI  18          
MANISTEE       CLOUDY    31  23  72 E8        30.19F WCI  23          
OSCODA         CLOUDY    30  26  84 E7        30.30F WCI  23          
PELLSTON       CLOUDY    23  20  88 CALM      30.29F                  
ROGERS CITY    CLOUDY    27  24  88 SE8       30.30F WCI  18          
TRAVERSE CITY  CLOUDY    30  22  72 E8        30.21F WCI  22          
$$
MIZ007>008-015-231400-
EASTERN UPPER MICHIGAN
  
CITY           SKY/WX    TMP DP  RH WIND       PRES   REMARKS
KINROSS        CLOUDY    21  20  96 SE8       30.29F WCI  11          
MACKINAC ISLAN CLOUDY    29  28  98 E8        30.27F WCI  21          
NEWBERRY       CLOUDY    24  21  91 MISG      30.25F                  
S. S. MARIE    CLOUDY    24  21  88 E5        30.29F WCI  18          
MUNISING         N/A     26  22  84 S10       30.22F WCI  16          
$$
MIZ004>006-011>014-085-231400-
CENTRAL UPPER MICHIGAN
  
CITY           SKY/WX    TMP DP  RH WIND       PRES   REMARKS
MANISTIQUE     CLOUDY    27  22  80 E5        30.23F WCI  22          
ESCANABA       LGT SNOW  23  20  88 CALM      30.24S VSB 1            
MENOMINEE      SNOW      27  25  93 E5        30.21F VSB 1/2 WCI  21  
SAWYER-GWINN   LGT SNOW  25  19  80 S9        30.19S WCI  15          
$$
MIZ001>003-009>011-084-231400-
WESTERN UPPER MICHIGAN
  
CITY           SKY/WX    TMP DP  RH WIND       PRES   REMARKS
IRON MOUNTAIN  SNOW      23  20  88 SE6       30.17F VSB 1/2 WCI  16  
HOUGHTON       CLOUDY    28  25  88 E10       30.15F FOG     WCI  19  
COPPER HARBOR    N/A     30  26  85 S5        30.19F WCI  25          
IRONWOOD       FLURRIES  27  24  89 E13       30.07F WCI  16          
$$

ABBREVIATIONS USED IN REMARKS
   TC - TEMPERATURE IN CELSIUS
  WCI - WIND CHILL INDEX
   HX - HEAT INDEX
  VSB - VISIBILITY